Lobo

Go HERE for most recent data if this page is not up to date.

Jump to table bottom
Date/Time Temp deg F RH % 24 Hr Snow (in) Snow Depth (in) H2O (in)
11/30 13:00 12.4 86 5.8 35.1 0.00
11/30 12:00 12.1 86 6.0 35.4 0.00
11/30 11:00 10.3 86 5.7 127.5 0.00
11/30 10:00 9.5 85 6.4 35.2 0.03
11/30 09:00 8.5 85 4.8 35.1 0.04
11/30 08:00 7.6 84 3.3 127.5 0.00
11/30 07:00 6.9 83 1.6 31.3 0.00
11/30 06:00 7.6 81 0.0 29.5 0.00
11/30 05:00 4.5 79 0.2 29.7 0.00
11/30 04:00 1.6 77 0.0 29.9 0.00
11/30 03:00 3.9 71 0.2 30.0 0.00
11/30 02:00 1.6 68 0.2 29.8 0.00
11/30 01:00 0.8 79 0.0 29.9 0.00
11/30 00:00 -0.3 78 0.1 29.9 0.00
11/29 23:00 -0.4 78 0.0 29.9 0.00
11/29 22:00 1.1 68 0.0 30.0 0.00
11/29 21:00 1.3 72 -0.0 30.0 0.00
11/29 20:00 1.5 73 0.0 29.9 0.00
11/29 19:00 1.7 67 0.0 29.9 0.00
11/29 18:00 1.5 69 0.0 29.9 0.00
11/29 17:00 1.6 69 -0.0 29.9 0.00
11/29 16:00 1.7 72 -0.0 29.9 0.00
11/29 15:00 2.5 63 -0.1 30.2 0.00
11/29 14:00 3.1 63 -0.1 30.1 0.00
11/29 13:00 2.7 68 -0.1 29.9 0.00
11/29 12:00 2.6 70 -0.0 30.2 0.00
11/29 11:00 1.0 70 -0.0 30.2 0.00
11/29 10:00 2.5 65 -0.0 30.3 0.00
11/29 09:00 1.2 53 0.1 30.3 0.00
11/29 08:00 0.6 53 0.1 30.4 0.00
11/29 07:00 0.7 45 0.1 30.4 0.00
11/29 06:00 0.5 61 0.0 30.4 0.00
11/29 05:00 1.1 72 0.0 30.5 0.00
11/29 04:00 2.6 67 0.1 30.5 0.00
11/29 03:00 1.1 69 0.4 30.7 0.00
11/29 02:00 -0.3 62 0.2 30.4 0.00
11/29 01:00 -1.1 58 0.2 30.6 0.00
11/29 00:00 -0.7 67 0.0 30.6 0.00
.